Location: Gleizolles
(44.4833°N, 6.7667°E)
Time: 15:11:23
(UTC+00:00)

Vanguard 1 - Pass Details

Date: 30 June 2024
Orbit: 650 x 3826 km, 34.3° (Epoch: 22 July)

Event Time Altitude Azimuth Distance (km) Brightness Sun altitude
Rises 05:55:51 0° 198° (SSW) 7,660 14.3 19.3°
Reaches altitude 10° 06:04:04 10° 183° (S) 6,169 14.0 20.7°
Maximum altitude 06:14:11 18° 149° (SSE) 4,689 13.9 22.5°
Drops below altitude 10° 06:21:50 10° 113° (ESE) 4,516 14.5 23.8°
Sets 06:26:16 0° 95° (E) 4,987 15.0 24.6°
